Time,TemperatureF,DewpointF,PressureIn,WindDirection,WindDirectionDegrees,WindSpeedMPH,WindSpeedGustMPH,Humidity,HourlyPrecipIn,Conditions,Clouds,dailyrainin,SoftwareType,DateUTC
2013-03-04 00:13:00,31.8,27.8,29.50,WNW,292,4.7,-999.0,85,-99.99,,,0.00,Acu-Link.com,2013-03-04 05:13:00,
2013-03-04 00:29:00,31.8,27.2,29.50,NW,315,2.7,-999.0,83,-99.99,,,0.00,Acu-Link.com,2013-03-04 05:29:00,
2013-03-04 00:44:00,32.0,27.4,29.50,SW,225,2.2,-999.0,83,-99.99,,,0.00,Acu-Link.com,2013-03-04 05:44:00,
2013-03-04 00:59:00,31.8,26.9,29.51,West,270,4.2,-999.0,82,-99.99,,,0.00,Acu-Link.com,2013-03-04 05:59:00,
2013-03-04 01:14:00,32.2,26.7,29.50,WNW,292,5.3,-999.0,80,-99.99,,,0.00,Acu-Link.com,2013-03-04 06:14:00,
2013-03-04 01:29:00,32.0,26.8,29.51,West,270,2.2,-999.0,81,-99.99,,,0.00,Acu-Link.com,2013-03-04 06:29:00,
2013-03-04 01:44:00,32.0,26.8,29.51,SSW,202,3.7,-999.0,81,-99.99,,,0.00,Acu-Link.com,2013-03-04 06:44:00,
2013-03-04 01:59:00,31.8,26.3,29.51,West,270,2.2,-999.0,80,-99.99,,,0.00,Acu-Link.com,2013-03-04 06:59:00,
2013-03-04 02:14:00,31.6,26.5,29.51,WSW,247,3.7,-999.0,81,-99.99,,,0.00,Acu-Link.com,2013-03-04 07:14:00,
2013-03-04 02:29:00,31.5,26.7,29.51,West,270,3.7,-999.0,82,-99.99,,,0.00,Acu-Link.com,2013-03-04 07:29:00,
2013-03-04 02:45:00,30.9,25.8,29.51,WNW,292,2.2,-999.0,81,-99.99,,,0.00,Acu-Link.com,2013-03-04 07:45:00,
2013-03-04 03:00:00,30.6,25.2,29.51,NNW,337,4.7,-999.0,80,-99.99,,,0.00,Acu-Link.com,2013-03-04 08:00:00,
2013-03-04 03:15:00,29.8,24.7,29.52,WNW,292,7.8,-999.0,81,-99.99,,,0.00,Acu-Link.com,2013-03-04 08:15:00,
2013-03-04 03:30:00,30.0,24.6,29.52,SSW,202,3.2,-999.0,80,-99.99,,,0.00,Acu-Link.com,2013-03-04 08:30:00,
2013-03-04 03:45:00,29.7,24.0,29.53,WNW,292,5.8,-999.0,79,-99.99,,,0.00,Acu-Link.com,2013-03-04 08:45:00,
2013-03-04 04:00:00,29.5,23.8,29.52,NW,315,7.3,-999.0,79,-99.99,,,0.00,Acu-Link.com,2013-03-04 09:00:00,
2013-03-04 04:20:00,29.3,23.6,29.53,NW,315,6.8,-999.0,79,-99.99,,,0.00,Acu-Link.com,2013-03-04 09:20:00,
2013-03-04 04:35:00,29.1,23.1,29.53,WNW,292,4.7,-999.0,78,-99.99,,,0.00,Acu-Link.com,2013-03-04 09:35:00,
2013-03-04 04:50:00,28.9,22.9,29.53,West,270,3.2,-999.0,78,-99.99,,,0.00,Acu-Link.com,2013-03-04 09:50:00,
2013-03-04 05:05:00,28.8,23.1,29.54,NNW,337,3.7,-999.0,79,-99.99,,,0.00,Acu-Link.com,2013-03-04 10:05:00,
2013-03-04 05:20:00,28.6,22.6,29.54,West,270,2.7,-999.0,78,-99.99,,,0.00,Acu-Link.com,2013-03-04 10:20:00,
2013-03-04 05:35:00,28.4,22.4,29.54,WNW,292,4.7,-999.0,78,-99.99,,,0.00,Acu-Link.com,2013-03-04 10:35:00,
2013-03-04 05:50:00,28.4,22.1,29.54,WNW,292,6.8,-999.0,77,-99.99,,,0.00,Acu-Link.com,2013-03-04 10:50:00,
2013-03-04 06:05:00,28.4,22.1,29.54,WSW,247,3.2,-999.0,77,-99.99,,,0.00,Acu-Link.com,2013-03-04 11:05:00,
2013-03-04 06:20:00,28.4,21.8,29.55,SW,225,4.2,-999.0,76,-99.99,,,0.00,Acu-Link.com,2013-03-04 11:20:00,
2013-03-04 06:36:00,28.2,21.6,29.55,North,0,9.4,-999.0,76,-99.99,,,0.00,Acu-Link.com,2013-03-04 11:36:00,
2013-03-04 06:51:00,28.2,21.0,29.55,NNW,337,3.2,-999.0,74,-99.99,,,0.00,Acu-Link.com,2013-03-04 11:51:00,
2013-03-04 07:06:00,28.4,20.9,29.56,North,0,4.7,-999.0,73,-99.99,,,0.00,Acu-Link.com,2013-03-04 12:06:00,
2013-03-04 07:21:00,29.1,21.2,29.56,West,270,5.3,-999.0,72,-99.99,,,0.00,Acu-Link.com,2013-03-04 12:21:00,
2013-03-04 07:36:00,29.7,21.5,29.56,WSW,247,3.2,-999.0,71,-99.99,,,0.00,Acu-Link.com,2013-03-04 12:36:00,
2013-03-04 07:51:00,30.4,21.8,29.56,NE,45,4.7,-999.0,70,-99.99,,,0.00,Acu-Link.com,2013-03-04 12:51:00,
2013-03-04 08:06:00,31.5,21.5,29.55,WSW,247,9.9,-999.0,66,-99.99,,,0.00,Acu-Link.com,2013-03-04 13:06:00,
2013-03-04 08:21:00,32.9,22.4,29.55,West,270,5.3,-999.0,65,-99.99,,,0.00,Acu-Link.com,2013-03-04 13:21:00,
2013-03-04 08:36:00,32.9,22.4,29.54,West,270,8.9,-999.0,65,-99.99,,,0.00,Acu-Link.com,2013-03-04 13:36:00,
2013-03-04 08:52:00,33.8,22.6,29.54,West,270,6.8,-999.0,63,-99.99,,,0.00,Acu-Link.com,2013-03-04 13:52:00,
2013-03-04 09:07:00,33.8,22.9,29.53,North,0,2.7,-999.0,64,-99.99,,,0.00,Acu-Link.com,2013-03-04 14:07:00,
2013-03-04 09:22:00,33.6,22.7,29.53,WNW,292,8.9,-999.0,64,-99.99,,,0.00,Acu-Link.com,2013-03-04 14:22:00,
2013-03-04 09:37:00,34.9,22.8,29.53,West,270,5.3,-999.0,61,-99.99,,,0.00,Acu-Link.com,2013-03-04 14:37:00,
2013-03-04 09:52:00,34.3,22.7,29.53,West,270,7.8,-999.0,62,-99.99,,,0.00,Acu-Link.com,2013-03-04 14:52:00,
2013-03-04 10:07:00,35.8,23.7,29.52,WSW,247,6.3,-999.0,61,-99.99,,,0.00,Acu-Link.com,2013-03-04 15:07:00,
2013-03-04 10:22:00,36.9,23.9,29.53,WNW,292,4.2,-999.0,59,-99.99,,,0.00,Acu-Link.com,2013-03-04 15:22:00,
2013-03-04 10:38:00,37.0,24.0,29.51,West,270,10.9,-999.0,59,-99.99,,,0.00,Acu-Link.com,2013-03-04 15:38:00,
2013-03-04 10:53:00,37.9,24.0,29.52,WNW,292,8.3,-999.0,57,-99.99,,,0.00,Acu-Link.com,2013-03-04 15:53:00,
2013-03-04 11:08:00,38.1,23.4,29.51,West,270,7.8,-999.0,55,-99.99,,,0.00,Acu-Link.com,2013-03-04 16:08:00,
2013-03-04 11:23:00,39.7,24.4,29.51,NNW,337,3.7,-999.0,54,-99.99,,,0.00,Acu-Link.com,2013-03-04 16:23:00,
2013-03-04 11:38:00,39.2,23.5,29.50,ESE,112,8.9,-999.0,53,-99.99,,,0.00,Acu-Link.com,2013-03-04 16:38:00,
2013-03-04 11:53:00,39.4,23.7,29.50,WNW,292,16.6,-999.0,53,-99.99,,,0.00,Acu-Link.com,2013-03-04 16:53:00,
2013-03-04 12:08:00,39.0,23.8,29.50,NNW,337,6.8,-999.0,54,-99.99,,,0.00,Acu-Link.com,2013-03-04 17:08:00,
2013-03-04 12:24:00,38.7,23.9,29.50,West,270,6.8,-999.0,55,-99.99,,,0.00,Acu-Link.com,2013-03-04 17:24:00,
2013-03-04 12:39:00,39.7,24.0,29.50,WNW,292,9.4,-999.0,53,-99.99,,,0.00,Acu-Link.com,2013-03-04 17:39:00,
2013-03-04 12:54:00,39.4,24.2,29.50,WNW,292,4.2,-999.0,54,-99.99,,,0.00,Acu-Link.com,2013-03-04 17:54:00,
2013-03-04 13:09:00,39.7,24.0,29.49,North,0,3.2,-999.0,53,-99.99,,,0.00,Acu-Link.com,2013-03-04 18:09:00,
2013-03-04 13:24:00,39.7,24.9,29.49,NNW,337,4.2,-999.0,55,-99.99,,,0.00,Acu-Link.com,2013-03-04 18:24:00,
2013-03-04 13:39:00,39.2,24.0,29.49,NNW,337,3.2,-999.0,54,-99.99,,,0.00,Acu-Link.com,2013-03-04 18:39:00,
2013-03-04 13:54:00,40.1,24.4,29.48,NNE,22,9.9,-999.0,53,-99.99,,,0.00,Acu-Link.com,2013-03-04 18:54:00,
2013-03-04 14:10:00,41.2,24.9,29.48,SW,225,4.7,-999.0,52,-99.99,,,0.00,Acu-Link.com,2013-03-04 19:10:00,
2013-03-04 14:25:00,41.4,25.6,29.49,West,270,3.7,-999.0,53,-99.99,,,0.00,Acu-Link.com,2013-03-04 19:25:00,
2013-03-04 14:40:00,41.7,25.4,29.49,SSW,202,5.3,-999.0,52,-99.99,,,0.00,Acu-Link.com,2013-03-04 19:40:00,
2013-03-04 14:55:00,41.4,25.6,29.49,SW,225,10.4,-999.0,53,-99.99,,,0.00,Acu-Link.com,2013-03-04 19:55:00,
2013-03-04 15:10:00,40.8,25.0,29.50,West,270,7.8,-999.0,53,-99.99,,,0.00,Acu-Link.com,2013-03-04 20:10:00,
2013-03-04 15:25:00,41.2,25.4,29.49,NW,315,6.8,-999.0,53,-99.99,,,0.00,Acu-Link.com,2013-03-04 20:25:00,
2013-03-04 15:40:00,40.5,26.9,29.50,West,270,4.7,-999.0,58,-99.99,,,0.00,Acu-Link.com,2013-03-04 20:40:00,
2013-03-04 15:55:00,39.4,27.5,29.50,WSW,247,3.7,-999.0,62,-99.99,,,0.00,Acu-Link.com,2013-03-04 20:55:00,
2013-03-04 16:10:00,38.8,27.3,29.51,NNE,22,11.9,-999.0,63,-99.99,,,0.00,Acu-Link.com,2013-03-04 21:10:00,
2013-03-04 16:26:00,38.3,26.4,29.51,SW,225,11.9,-999.0,62,-99.99,,,0.00,Acu-Link.com,2013-03-04 21:26:00,
2013-03-04 16:41:00,38.3,26.0,29.51,West,270,5.3,-999.0,61,-99.99,,,0.00,Acu-Link.com,2013-03-04 21:41:00,
2013-03-04 16:56:00,38.1,25.5,29.51,WNW,292,3.2,-999.0,60,-99.99,,,0.00,Acu-Link.com,2013-03-04 21:56:00,
2013-03-04 17:11:00,37.9,25.3,29.51,WNW,292,5.8,-999.0,60,-99.99,,,0.00,Acu-Link.com,2013-03-04 22:11:00,
2013-03-04 17:26:00,37.8,25.6,29.52,West,270,5.3,-999.0,61,-99.99,,,0.00,Acu-Link.com,2013-03-04 22:26:00,
2013-03-04 17:41:00,37.2,25.8,29.53,North,0,2.7,-999.0,63,-99.99,,,0.00,Acu-Link.com,2013-03-04 22:41:00,
2013-03-04 17:56:00,36.7,26.1,29.54,NNW,337,2.2,-999.0,65,-99.99,,,0.00,Acu-Link.com,2013-03-04 22:56:00,
2013-03-04 18:11:00,36.0,26.1,29.55,SW,225,5.8,-999.0,67,-99.99,,,0.00,Acu-Link.com,2013-03-04 23:11:00,
2013-03-04 18:26:00,35.4,26.3,29.55,West,270,5.8,-999.0,69,-99.99,,,0.00,Acu-Link.com,2013-03-04 23:26:00,
2013-03-04 18:42:00,35.2,26.1,29.56,WNW,292,2.2,-999.0,69,-99.99,,,0.00,Acu-Link.com,2013-03-04 23:42:00,
2013-03-04 18:57:00,34.9,26.1,29.57,SW,225,3.7,-999.0,70,-99.99,,,0.00,Acu-Link.com,2013-03-04 23:57:00,
2013-03-04 19:12:00,34.7,25.6,29.58,West,270,8.9,-999.0,69,-99.99,,,0.00,Acu-Link.com,2013-03-05 00:12:00,
2013-03-04 19:27:00,34.5,25.4,29.58,West,270,6.3,-999.0,69,-99.99,,,0.00,Acu-Link.com,2013-03-05 00:27:00,
2013-03-04 19:42:00,34.2,25.1,29.58,NNW,337,7.8,-999.0,69,-99.99,,,0.00,Acu-Link.com,2013-03-05 00:42:00,
2013-03-04 19:57:00,34.0,25.3,29.58,WSW,247,3.7,-999.0,70,-99.99,,,0.00,Acu-Link.com,2013-03-05 00:57:00,
2013-03-04 20:13:00,33.8,25.4,29.59,West,270,3.2,-999.0,71,-99.99,,,0.00,Acu-Link.com,2013-03-05 01:13:00,
2013-03-04 20:28:00,34.0,24.9,29.59,SW,225,3.7,-999.0,69,-99.99,,,0.00,Acu-Link.com,2013-03-05 01:28:00,
2013-03-04 20:43:00,34.2,25.1,29.60,SSW,202,3.7,-999.0,69,-99.99,,,0.00,Acu-Link.com,2013-03-05 01:43:00,
2013-03-04 20:58:00,34.2,25.1,29.60,SSW,202,6.8,-999.0,69,-99.99,,,0.00,Acu-Link.com,2013-03-05 01:58:00,
2013-03-04 21:13:00,34.2,25.1,29.61,WNW,292,9.9,-999.0,69,-99.99,,,0.00,Acu-Link.com,2013-03-05 02:13:00,
2013-03-04 21:28:00,34.2,25.1,29.61,WNW,292,4.2,-999.0,69,-99.99,,,0.00,Acu-Link.com,2013-03-05 02:28:00,
2013-03-04 21:44:00,33.8,25.1,29.61,West,270,4.2,-999.0,70,-99.99,,,0.00,Acu-Link.com,2013-03-05 02:44:00,
2013-03-04 21:59:00,33.6,24.9,29.62,WNW,292,6.3,-999.0,70,-99.99,,,0.00,Acu-Link.com,2013-03-05 02:59:00,
2013-03-04 22:14:00,33.4,25.0,29.62,SW,225,4.2,-999.0,71,-99.99,,,0.00,Acu-Link.com,2013-03-05 03:14:00,
2013-03-04 22:29:00,33.3,24.9,29.62,NNW,337,6.3,-999.0,71,-99.99,,,0.00,Acu-Link.com,2013-03-05 03:29:00,
2013-03-04 22:44:00,33.1,24.4,29.62,West,270,5.8,-999.0,70,-99.99,,,0.00,Acu-Link.com,2013-03-05 03:44:00,
2013-03-04 22:59:00,32.9,24.5,29.63,NNW,337,4.7,-999.0,71,-99.99,,,0.00,Acu-Link.com,2013-03-05 03:59:00,
2013-03-04 23:14:00,32.7,24.4,29.63,SSW,202,7.8,-999.0,71,-99.99,,,0.00,Acu-Link.com,2013-03-05 04:14:00,
2013-03-04 23:29:00,32.5,24.2,29.64,NNE,22,14.5,-999.0,71,-99.99,,,0.00,Acu-Link.com,2013-03-05 04:29:00,
2013-03-04 23:44:00,32.5,24.2,29.64,SW,225,3.2,-999.0,71,-99.99,,,0.00,Acu-Link.com,2013-03-05 04:44:00,